Location: Agadir Mansour Mhndou
(31.2424°N, 8.7730°W)
Time: 05:47:12
(UTC+00:00)

Cosmos 1300 - Pass Details

Date: 16 October 2021
Orbit: 509 x 512 km, 82.5° (Epoch: 28 November)

Event Time Altitude Azimuth Distance (km) Brightness Sun altitude
Rises 20:00:53 0° 203° (SSW) 2,609 6.5 -26.1°
Reaches altitude 10° 20:03:08 10° 213° (SSW) 1,727 5.6 -26.6°
Maximum altitude 20:06:36 34° 279° (W) 862 4.3 -27.4°
Enters shadow 20:09:04 17° 337° (NNW) 1,373 5.1 -27.9°
